This is the latest recevied weather packets stored in our database for station/object F5LKO-13. If no packets are shown the sender has not sent any weather packets the latest 10 day(s).
| Time | Temp. | Humidity | Pressure | Rain* | Wind** | Luminosity | Snow |
|---|---|---|---|---|---|---|---|
| 1778145122 | 18.33° C | 99% | 1015.5 hPa | 0 mm | - | 52 W/m² | - |
| 1778144824 | 18.33° C | 99% | 1015.5 hPa | 0 mm | - | 51 W/m² | - |
| 1778144508 | 19.44° C | 99% | 1015.5 hPa | 0 mm | - | 53 W/m² | - |
| 1778144202 | 18.33° C | 99% | 1015.6 hPa | 0 mm | - | 48 W/m² | - |
| 1778143896 | 17.78° C | 99% | 1015.5 hPa | 0 mm | - | 46 W/m² | - |
| 1778143590 | 18.33° C | 99% | 1015.6 hPa | 0 mm | - | 19 W/m² | - |
| 1778143284 | 19.44° C | 99% | 1015.6 hPa | 0 mm | - | 42 W/m² | - |
| 1778142987 | 19.44° C | 99% | 1015.7 hPa | 0 mm | - | 40 W/m² | - |
| 1778142672 | 18.89° C | 99% | 1015.7 hPa | 0 mm | - | 37 W/m² | - |
| 1778142366 | 18.33° C | 99% | 1015.7 hPa | 0 mm | - | 35 W/m² | - |
| 1778142060 | 17.22° C | 99% | 1015.7 hPa | 0 mm | - | 32 W/m² | - |
| 1778141754 | 17.22° C | 99% | 1015.7 hPa | 0 mm | - | 30 W/m² | - |
| 1778141448 | 18.89° C | 99% | 1015.8 hPa | 0 mm | - | 29 W/m² | - |
| 1778141150 | 18.89° C | 99% | 1015.8 hPa | 0 mm | - | 25 W/m² | - |
| 1778140836 | 18.89° C | 99% | 1015.7 hPa | 0 mm | - | 24 W/m² | - |
| 1778140529 | 18.33° C | 99% | 1015.8 hPa | 0 mm | - | 22 W/m² | - |
| 1778140223 | 18.33° C | 99% | 1015.8 hPa | 0 mm | - | 20 W/m² | - |
| 1778139917 | 18.33° C | 99% | 1015.7 hPa | 0 mm | - | 18 W/m² | - |
| 1778139612 | 16.67° C | 99% | 1015.8 hPa | 0 mm | - | 16 W/m² | - |
| 1778139314 | 17.78° C | 99% | 1015.8 hPa | 0 mm | - | 14 W/m² | - |
| 1778138999 | 18.89° C | 99% | 1015.8 hPa | 0 mm | - | 13 W/m² | - |
| 1778138693 | 18.33° C | 99% | 1015.9 hPa | 0 mm | - | 11 W/m² | - |
| 1778138388 | 18.33° C | 99% | 1015.9 hPa | 0 mm | - | 10 W/m² | - |
| 1778138082 | 18.89° C | 99% | 1015.9 hPa | 0 mm | - | 8 W/m² | - |
| 1778137776 | 19.44° C | 99% | 1015.9 hPa | 0 mm | - | 7 W/m² | - |
* Rain latest hour (hover to see other rain measurements)
** Current wind speed in m/s (hover to see current wind gust speed)